GOSAT (IBUKI)

Last updated on Thu Oct 30 2025 00:02:31 GMT+0000 (Coordinated Universal Time)

1 33492U 09002A 25302.54698581 .00001264 00000+0 23133-3 0 9997 2 33492 98.0753 51.7711 0001464 85.4255 274.7117 14.67547187897633
UTC large
Height (km)
Speed (km/s)
/
Latitude / Longitude
Inclination (degrees)
Orbital Period (minutes)
Azimuth
Elevation
Range (km)
Doppler Factor

Next 0 passes for location: London (51.5072 / 0.1276)

Sorry there are no passes over London.